Location: Bühlhof
(48.7849°N, 8.6361°E)
Time: 05:56:57
(UTC+00:00)

Cosmos 1821 Rocket - Pass Details

Date: 19 January 2026
Orbit: 943 x 1004 km, 82.9° (Epoch: 18 February)

Event Time Altitude Azimuth Distance (km) Brightness Sun altitude
Rises 16:37:52 0° 352° (N) 3,675 6.8 -6.0°
Reaches altitude 10° 16:40:27 10° 357° (N) 2,715 6.1 -6.4°
Maximum altitude 16:46:35 60° 77° (ENE) 1,086 4.0 -7.3°
Drops below altitude 10° 16:52:35 10° 157° (SSE) 2,664 6.3 -8.2°
Sets 16:55:06 0° 161° (SSE) 3,600 7.0 -8.6°
